RYR2ZX EGSS-LERS

Flight info

Callsign RYR2ZX
Flight time 2h 1m
Altitude 33000
Route NUGBO M183 SILVA Q41 COWLY UT71 VAPID UN859 SOPIL DCT BALAN DCT EVPOK DCT NARAK DCT GAI DCT LOMRA DCT ROCAN DCT PUMAL/N0358F230 N31 BERGA
Aircraft B738/M-SDE2E3FGHIRWXY/LB1

Departure

Time 2026-05-07 10:27
Airport London Stansted Airport (EGSS)

Arrival

Time 2026-05-07 12:29
Airport Reus Airport (LERS)
Time Latitude Longitude Altitude Speed Heading
2026-05-07 09:48 51.89212 0.25997 348 ft 0 kts 43°
2026-05-07 10:09 51.89204 0.25986 358 ft 2 kts 36°
2026-05-07 10:10 51.89190 0.25972 357 ft 2 kts 24°
2026-05-07 10:10 51.89174 0.25965 354 ft 2 kts 354°
2026-05-07 10:10 51.89159 0.25974 349 ft 2 kts 321°
2026-05-07 10:10 51.89151 0.25986 357 ft 1 kts 313°
2026-05-07 10:11 51.89150 0.25987 357 ft 0 kts 312°
2026-05-07 10:14 51.89155 0.25979 351 ft 4 kts 313°
2026-05-07 10:14 51.89197 0.25905 347 ft 13 kts 313°
2026-05-07 10:14 51.89273 0.25773 347 ft 17 kts 313°
2026-05-07 10:14 51.89349 0.25642 355 ft 14 kts 311°
2026-05-07 10:15 51.89339 0.25517 345 ft 14 kts 223°
2026-05-07 10:15 51.89253 0.25388 345 ft 21 kts 223°
2026-05-07 10:15 51.89138 0.25215 345 ft 23 kts 223°
2026-05-07 10:15 51.89023 0.25044 353 ft 22 kts 223°
2026-05-07 10:16 51.88912 0.24876 346 ft 21 kts 224°
2026-05-07 10:16 51.88804 0.24714 350 ft 21 kts 223°
2026-05-07 10:16 51.88700 0.24557 353 ft 19 kts 223°
2026-05-07 10:16 51.88637 0.24464 350 ft 10 kts 223°
2026-05-07 10:17 51.88585 0.24386 349 ft 11 kts 223°
2026-05-07 10:17 51.88519 0.24288 349 ft 16 kts 223°
2026-05-07 10:17 51.88425 0.24146 353 ft 21 kts 223°
2026-05-07 10:17 51.88307 0.23968 345 ft 26 kts 223°
2026-05-07 10:18 51.88164 0.23754 344 ft 29 kts 222°
2026-05-07 10:18 51.88017 0.23534 348 ft 28 kts 223°
2026-05-07 10:18 51.87879 0.23325 349 ft 26 kts 223°
2026-05-07 10:18 51.87756 0.23143 347 ft 18 kts 223°
2026-05-07 10:19 51.87739 0.23017 351 ft 12 kts 303°
2026-05-07 10:19 51.87799 0.22912 344 ft 13 kts 312°
2026-05-07 10:19 51.87853 0.22818 342 ft 11 kts 313°
2026-05-07 10:19 51.87871 0.22787 338 ft 1 kts 312°
2026-05-07 10:20 51.87872 0.22785 338 ft 0 kts 312°
2026-05-07 10:26 51.87878 0.22773 338 ft 4 kts 312°
2026-05-07 10:26 51.87920 0.22698 340 ft 12 kts 312°
2026-05-07 10:26 51.87970 0.22681 337 ft 8 kts 41°
2026-05-07 10:26 51.88046 0.22795 338 ft 34 kts 43°
2026-05-07 10:27 51.88411 0.23343 343 ft 106 kts 43°
2026-05-07 10:27 51.89100 0.24373 355 ft 164 kts 44°
2026-05-07 10:27 51.89956 0.25633 1132 ft 161 kts 43°
2026-05-07 10:27 51.90770 0.26847 2023 ft 162 kts 43°
2026-05-07 10:28 51.91648 0.28198 2296 ft 187 kts 43°
2026-05-07 10:28 51.92748 0.29537 2552 ft 206 kts 24°
2026-05-07 10:28 51.94158 0.29979 2986 ft 214 kts 356°
2026-05-07 10:28 51.95588 0.29255 3576 ft 218 kts 327°
2026-05-07 10:29 51.96676 0.27442 3930 ft 238 kts 298°
2026-05-07 10:29 51.97170 0.24762 4207 ft 259 kts 279°
2026-05-07 10:29 51.97430 0.21823 4763 ft 268 kts 278°
2026-05-07 10:30 51.97972 0.15773 6142 ft 273 kts 278°
2026-05-07 10:30 51.98281 0.12714 6806 ft 276 kts 279°
2026-05-07 10:30 51.98602 0.09684 7544 ft 275 kts 279°
2026-05-07 10:30 51.98911 0.06602 8233 ft 278 kts 274°
2026-05-07 10:31 51.98699 0.03478 8928 ft 280 kts 257°
2026-05-07 10:31 51.98263 0.00384 9672 ft 282 kts 258°
2026-05-07 10:31 51.97840 -0.02747 10362 ft 286 kts 259°
2026-05-07 10:31 51.97409 -0.06019 10584 ft 307 kts 259°
2026-05-07 10:32 51.96956 -0.09485 10782 ft 326 kts 259°
2026-05-07 10:32 51.96479 -0.13147 11277 ft 335 kts 259°
2026-05-07 10:32 51.95995 -0.16848 12000 ft 336 kts 258°
2026-05-07 10:32 51.95507 -0.20581 12734 ft 339 kts 258°
2026-05-07 10:33 51.95015 -0.24333 13453 ft 342 kts 258°
2026-05-07 10:33 51.94517 -0.28123 14178 ft 344 kts 258°
2026-05-07 10:33 51.94020 -0.31898 14839 ft 348 kts 258°
2026-05-07 10:33 51.93508 -0.35779 15278 ft 357 kts 258°
2026-05-07 10:34 51.92983 -0.39744 15513 ft 356 kts 258°
2026-05-07 10:34 51.92468 -0.43624 15756 ft 349 kts 258°
2026-05-07 10:34 51.91955 -0.47484 16002 ft 345 kts 258°
2026-05-07 10:34 51.91451 -0.51261 16069 ft 347 kts 258°
2026-05-07 10:35 51.90939 -0.55092 16066 ft 344 kts 258°
2026-05-07 10:35 51.90430 -0.58886 16075 ft 345 kts 258°
2026-05-07 10:35 51.89917 -0.62704 16082 ft 347 kts 258°
2026-05-07 10:35 51.89408 -0.66477 16075 ft 347 kts 258°
2026-05-07 10:36 51.88890 -0.70310 16081 ft 349 kts 258°
2026-05-07 10:36 51.88371 -0.74140 16062 ft 346 kts 258°
2026-05-07 10:36 51.88029 -0.76659 16066 ft 346 kts 258°
2026-05-07 10:36 51.87508 -0.80491 16071 ft 349 kts 258°
2026-05-07 10:37 51.86988 -0.84314 16067 ft 347 kts 258°
2026-05-07 10:37 51.86297 -0.89361 16061 ft 346 kts 258°
2026-05-07 10:37 51.85951 -0.91883 16065 ft 347 kts 258°
2026-05-07 10:37 51.85268 -0.95677 16049 ft 348 kts 244°
2026-05-07 10:38 51.83864 -0.98763 16098 ft 349 kts 223°
2026-05-07 10:38 51.81805 -1.00989 16432 ft 362 kts 205°
2026-05-07 10:38 51.79368 -1.02074 17167 ft 365 kts 191°
2026-05-07 10:38 51.76841 -1.02724 17910 ft 368 kts 190°
2026-05-07 10:39 51.74278 -1.03323 18503 ft 374 kts 189°
2026-05-07 10:39 51.71684 -1.03936 19089 ft 377 kts 190°
2026-05-07 10:39 51.69114 -1.04568 19637 ft 381 kts 190°
2026-05-07 10:39 51.66481 -1.05236 20075 ft 383 kts 191°
2026-05-07 10:40 51.63836 -1.05915 20386 ft 386 kts 190°
2026-05-07 10:40 51.61167 -1.06482 20643 ft 388 kts 184°
2026-05-07 10:40 51.58448 -1.06443 21165 ft 391 kts 179°
2026-05-07 10:40 51.55722 -1.06260 21851 ft 391 kts 179°
2026-05-07 10:41 51.53031 -1.06070 22459 ft 393 kts 179°
2026-05-07 10:41 51.50277 -1.05890 22967 ft 397 kts 179°
2026-05-07 10:41 51.47497 -1.05722 23479 ft 401 kts 179°
2026-05-07 10:41 51.44696 -1.05564 23961 ft 404 kts 179°
2026-05-07 10:42 51.41880 -1.05409 24420 ft 406 kts 179°
2026-05-07 10:42 51.39038 -1.05255 24839 ft 409 kts 179°
2026-05-07 10:42 51.36178 -1.05099 25269 ft 412 kts 179°
2026-05-07 10:42 51.33275 -1.04941 25522 ft 417 kts 179°
2026-05-07 10:43 51.30408 -1.04785 25770 ft 417 kts 179°
2026-05-07 10:43 51.27505 -1.04570 26014 ft 417 kts 175°
2026-05-07 10:43 51.24626 -1.03739 26070 ft 423 kts 166°
2026-05-07 10:43 51.21838 -1.02135 26073 ft 426 kts 157°
2026-05-07 10:44 51.19142 -1.00158 26076 ft 425 kts 156°
2026-05-07 10:44 51.16501 -0.98173 26076 ft 425 kts 156°
2026-05-07 10:44 51.13820 -0.96162 26077 ft 425 kts 156°
2026-05-07 10:44 51.11130 -0.94168 26075 ft 426 kts 156°
2026-05-07 10:45 51.08429 -0.92187 26077 ft 426 kts 156°
2026-05-07 10:45 51.05736 -0.90229 26071 ft 426 kts 157°
2026-05-07 10:45 51.03036 -0.88276 26072 ft 426 kts 156°
2026-05-07 10:45 51.00369 -0.86351 26073 ft 426 kts 157°
2026-05-07 10:46 50.97658 -0.84398 26246 ft 430 kts 157°
2026-05-07 10:46 50.94924 -0.82429 26727 ft 429 kts 157°
2026-05-07 10:46 50.92206 -0.80474 27212 ft 430 kts 157°
2026-05-07 10:46 50.89460 -0.78501 27560 ft 434 kts 157°
2026-05-07 10:47 50.86694 -0.76516 27912 ft 437 kts 156°
2026-05-07 10:47 50.84012 -0.74334 28287 ft 440 kts 150°
2026-05-07 10:47 50.81412 -0.71755 28671 ft 443 kts 148°
2026-05-07 10:47 50.78810 -0.69058 29045 ft 445 kts 148°
2026-05-07 10:48 50.76221 -0.66348 29397 ft 447 kts 148°
2026-05-07 10:48 50.73624 -0.63643 29785 ft 448 kts 148°
2026-05-07 10:48 50.71036 -0.60973 30137 ft 450 kts 148°
2026-05-07 10:48 50.68401 -0.58279 30426 ft 451 kts 148°
2026-05-07 10:49 50.65747 -0.55582 30744 ft 452 kts 148°
2026-05-07 10:49 50.63132 -0.52937 31118 ft 451 kts 148°
2026-05-07 10:49 50.60480 -0.50262 31497 ft 450 kts 148°
2026-05-07 10:49 50.57830 -0.47594 31852 ft 450 kts 148°
2026-05-07 10:50 50.55226 -0.44975 32198 ft 449 kts 148°
2026-05-07 10:50 50.52578 -0.42314 32538 ft 449 kts 148°
2026-05-07 10:50 50.49947 -0.39675 32882 ft 449 kts 148°
2026-05-07 10:50 50.47308 -0.37029 33199 ft 449 kts 148°
2026-05-07 10:51 50.44703 -0.34421 33549 ft 448 kts 148°
2026-05-07 10:51 50.42076 -0.31794 33911 ft 447 kts 148°
2026-05-07 10:51 50.39449 -0.29172 34235 ft 446 kts 148°
2026-05-07 10:51 50.36829 -0.26559 34508 ft 445 kts 148°
2026-05-07 10:52 50.34240 -0.23982 34762 ft 445 kts 148°
2026-05-07 10:52 50.31631 -0.21387 35019 ft 445 kts 148°
2026-05-07 10:52 50.29014 -0.18789 35271 ft 444 kts 148°
2026-05-07 10:52 50.26405 -0.16199 35526 ft 444 kts 148°
2026-05-07 10:53 50.23793 -0.13612 35768 ft 444 kts 148°
2026-05-07 10:53 50.21183 -0.11029 35989 ft 444 kts 148°
2026-05-07 10:53 50.18573 -0.08450 36221 ft 444 kts 149°
2026-05-07 10:53 50.15958 -0.05869 36468 ft 443 kts 149°
2026-05-07 10:54 50.13385 -0.03332 36706 ft 443 kts 149°
2026-05-07 10:54 50.10736 -0.00879 36900 ft 442 kts 155°
2026-05-07 10:54 50.07903 0.00969 37048 ft 439 kts 165°
2026-05-07 10:54 50.04955 0.02192 37080 ft 438 kts 167°
2026-05-07 10:55 49.99030 0.04411 37083 ft 441 kts 168°
2026-05-07 10:55 49.93041 0.06685 37085 ft 443 kts 167°
2026-05-07 10:56 49.87063 0.09015 37079 ft 445 kts 167°
2026-05-07 10:56 49.81038 0.11378 37070 ft 446 kts 167°
2026-05-07 10:57 49.75013 0.13733 37071 ft 446 kts 167°
2026-05-07 10:57 49.68989 0.16078 37073 ft 445 kts 167°
2026-05-07 10:58 49.63038 0.18444 37074 ft 443 kts 166°
2026-05-07 10:58 49.57064 0.20864 37068 ft 442 kts 166°
2026-05-07 10:59 49.51151 0.23247 37074 ft 440 kts 166°
2026-05-07 10:59 49.45217 0.25627 37075 ft 439 kts 166°
2026-05-07 11:00 49.39293 0.27996 37078 ft 439 kts 166°
2026-05-07 11:00 49.33379 0.30354 37074 ft 438 kts 166°
2026-05-07 11:01 49.27498 0.32740 37076 ft 439 kts 165°
2026-05-07 11:01 49.21643 0.35223 37071 ft 439 kts 165°
2026-05-07 11:02 49.15729 0.37730 37066 ft 440 kts 165°
2026-05-07 11:02 49.09809 0.40220 37062 ft 441 kts 165°
2026-05-07 11:03 49.03903 0.42693 37063 ft 442 kts 165°
2026-05-07 11:03 48.97957 0.45176 37059 ft 443 kts 165°
2026-05-07 11:04 48.92010 0.47652 37060 ft 443 kts 165°
2026-05-07 11:04 48.86081 0.50117 37058 ft 444 kts 165°
2026-05-07 11:05 48.80108 0.52593 37058 ft 444 kts 166°
2026-05-07 11:05 48.74125 0.54998 37055 ft 444 kts 166°
2026-05-07 11:06 48.68166 0.57312 37058 ft 444 kts 166°
2026-05-07 11:06 48.62176 0.59644 37055 ft 444 kts 166°
2026-05-07 11:07 48.56181 0.61985 37058 ft 443 kts 166°
2026-05-07 11:07 48.50232 0.64315 37056 ft 443 kts 166°
2026-05-07 11:08 48.44285 0.66737 37056 ft 442 kts 166°
2026-05-07 11:08 48.38347 0.69165 37058 ft 441 kts 166°
2026-05-07 11:09 48.32455 0.71555 37050 ft 441 kts 166°
2026-05-07 11:09 48.26527 0.73950 37054 ft 440 kts 166°
2026-05-07 11:10 48.20603 0.76310 37053 ft 439 kts 166°
2026-05-07 11:10 48.14715 0.78619 37050 ft 439 kts 166°
2026-05-07 11:11 48.08794 0.80938 37054 ft 438 kts 166°
2026-05-07 11:11 48.02910 0.83241 37047 ft 438 kts 166°
2026-05-07 11:12 47.97001 0.85551 37049 ft 438 kts 166°
2026-05-07 11:12 47.91124 0.87842 37044 ft 438 kts 166°
2026-05-07 11:13 47.85217 0.90140 37044 ft 438 kts 166°
2026-05-07 11:13 47.79297 0.92436 37046 ft 439 kts 166°
2026-05-07 11:14 47.73415 0.94711 37040 ft 440 kts 167°
2026-05-07 11:14 47.67476 0.97004 37043 ft 440 kts 167°
2026-05-07 11:15 47.61534 0.99294 37037 ft 441 kts 167°
2026-05-07 11:15 47.55587 1.01580 37042 ft 441 kts 166°
2026-05-07 11:16 47.49669 1.03851 37036 ft 441 kts 167°
2026-05-07 11:16 47.43698 1.06059 37031 ft 441 kts 171°
2026-05-07 11:17 47.37641 1.06489 37048 ft 438 kts 182°
2026-05-07 11:17 47.31524 1.06240 37038 ft 438 kts 182°
2026-05-07 11:18 47.25409 1.06036 37038 ft 439 kts 182°
2026-05-07 11:18 47.19333 1.05886 37035 ft 439 kts 182°
2026-05-07 11:19 47.13213 1.05746 37032 ft 439 kts 182°
2026-05-07 11:19 47.07132 1.05606 37033 ft 439 kts 182°
2026-05-07 11:20 47.01019 1.05455 37030 ft 439 kts 182°
2026-05-07 11:20 46.94907 1.05201 36932 ft 436 kts 184°
2026-05-07 11:21 46.88927 1.04928 37014 ft 428 kts 184°
2026-05-07 11:21 46.82969 1.04664 37028 ft 428 kts 184°
2026-05-07 11:22 46.77018 1.04408 37038 ft 428 kts 184°
2026-05-07 11:22 46.71044 1.04154 37031 ft 429 kts 184°
2026-05-07 11:23 46.66066 1.03944 37026 ft 430 kts 184°
2026-05-07 11:23 46.59097 1.03649 37027 ft 430 kts 184°
2026-05-07 11:24 46.54112 1.03439 37026 ft 431 kts 184°
2026-05-07 11:24 46.47155 1.04654 37040 ft 436 kts 170°
2026-05-07 11:25 46.42234 1.06361 37018 ft 437 kts 169°
2026-05-07 11:25 46.36310 1.08419 37023 ft 437 kts 170°
2026-05-07 11:26 46.30378 1.10426 37017 ft 437 kts 170°
2026-05-07 11:26 46.24479 1.12391 37014 ft 437 kts 170°
2026-05-07 11:27 46.18570 1.14350 37012 ft 436 kts 170°
2026-05-07 11:27 46.12645 1.16310 37011 ft 436 kts 170°
2026-05-07 11:28 46.06723 1.18266 37016 ft 435 kts 170°
2026-05-07 11:28 46.00845 1.20203 37014 ft 435 kts 171°
2026-05-07 11:29 45.94935 1.22147 37010 ft 436 kts 171°
2026-05-07 11:29 45.89030 1.24085 37019 ft 435 kts 171°
2026-05-07 11:30 45.83168 1.26004 37025 ft 434 kts 171°
2026-05-07 11:30 45.77275 1.27930 37013 ft 434 kts 171°
2026-05-07 11:31 45.71375 1.29854 37015 ft 433 kts 171°
2026-05-07 11:31 45.65525 1.31757 37011 ft 433 kts 171°
2026-05-07 11:32 45.56699 1.34622 37006 ft 433 kts 171°
2026-05-07 11:33 45.50853 1.36514 36998 ft 433 kts 171°
2026-05-07 11:33 45.44980 1.38410 37014 ft 433 kts 171°
2026-05-07 11:34 45.39083 1.40308 37002 ft 433 kts 171°
2026-05-07 11:34 45.33235 1.42188 37002 ft 433 kts 171°
2026-05-07 11:35 45.27360 1.44073 37015 ft 432 kts 171°
2026-05-07 11:35 45.21486 1.45953 37012 ft 432 kts 171°
2026-05-07 11:36 45.15614 1.47829 37021 ft 432 kts 171°
2026-05-07 11:36 45.09780 1.49689 37017 ft 432 kts 171°
2026-05-07 11:37 45.03917 1.51554 37021 ft 431 kts 171°
2026-05-07 11:37 44.98043 1.53419 37019 ft 431 kts 171°
2026-05-07 11:38 44.92209 1.55268 37020 ft 431 kts 171°
2026-05-07 11:38 44.86341 1.57123 37002 ft 431 kts 171°
2026-05-07 11:39 44.80512 1.58961 37006 ft 430 kts 171°
2026-05-07 11:39 44.74668 1.60802 37002 ft 430 kts 171°
2026-05-07 11:40 44.68854 1.62628 36999 ft 429 kts 171°
2026-05-07 11:40 44.63020 1.64458 36995 ft 429 kts 171°
2026-05-07 11:41 44.57198 1.66280 37003 ft 428 kts 171°
2026-05-07 11:41 44.51414 1.68085 37004 ft 427 kts 171°
2026-05-07 11:42 44.45591 1.69900 37010 ft 427 kts 171°
2026-05-07 11:42 44.39815 1.71697 36997 ft 427 kts 171°
2026-05-07 11:43 44.34002 1.73502 37001 ft 426 kts 171°
2026-05-07 11:43 44.28201 1.75249 37006 ft 425 kts 173°
2026-05-07 11:44 44.22397 1.76559 37007 ft 424 kts 175°
2026-05-07 11:44 44.16540 1.77785 37010 ft 424 kts 175°
2026-05-07 11:45 44.10697 1.79050 37003 ft 425 kts 174°
2026-05-07 11:45 44.04887 1.80331 37014 ft 424 kts 174°
2026-05-07 11:46 43.99048 1.81617 36999 ft 425 kts 174°
2026-05-07 11:46 43.93192 1.82716 37009 ft 422 kts 179°
2026-05-07 11:47 43.87365 1.83273 37003 ft 422 kts 180°
2026-05-07 11:47 43.81485 1.83792 37009 ft 421 kts 179°
2026-05-07 11:48 43.75663 1.84336 37014 ft 421 kts 179°
2026-05-07 11:48 43.69818 1.84899 37019 ft 421 kts 179°
2026-05-07 11:49 43.64002 1.85462 37016 ft 420 kts 179°
2026-05-07 11:49 43.58162 1.86026 37019 ft 420 kts 179°
2026-05-07 11:50 43.52348 1.86586 37017 ft 420 kts 179°
2026-05-07 11:50 43.46506 1.87147 37003 ft 419 kts 179°
2026-05-07 11:51 43.40680 1.87706 37007 ft 419 kts 179°
2026-05-07 11:51 43.34904 1.88259 36998 ft 418 kts 179°
2026-05-07 11:52 43.29079 1.88816 36993 ft 418 kts 179°
2026-05-07 11:52 43.23267 1.89372 37000 ft 417 kts 179°
2026-05-07 11:53 43.17497 1.89922 36990 ft 417 kts 179°
2026-05-07 11:53 43.11692 1.90475 37001 ft 417 kts 179°
2026-05-07 11:54 43.05930 1.91023 37000 ft 417 kts 179°
2026-05-07 11:54 43.00124 1.91574 36994 ft 417 kts 179°
2026-05-07 11:55 42.94329 1.92123 36988 ft 417 kts 180°
2026-05-07 11:55 42.88569 1.92667 36977 ft 416 kts 180°
2026-05-07 11:56 42.82784 1.93213 36984 ft 415 kts 180°
2026-05-07 11:56 42.77005 1.93758 36990 ft 415 kts 180°
2026-05-07 11:57 42.71277 1.94296 36986 ft 414 kts 180°
2026-05-07 11:57 42.65537 1.94937 36919 ft 412 kts 176°
2026-05-07 11:57 42.62685 1.95477 36605 ft 413 kts 175°
2026-05-07 11:58 42.59892 1.96076 36297 ft 407 kts 175°
2026-05-07 11:58 42.57105 1.96684 35916 ft 402 kts 175°
2026-05-07 11:58 42.54356 1.97272 35531 ft 398 kts 175°
2026-05-07 11:58 42.51619 1.97840 35137 ft 395 kts 176°
2026-05-07 11:59 42.48938 1.98386 34758 ft 392 kts 176°
2026-05-07 11:59 42.46243 1.98929 34364 ft 390 kts 176°
2026-05-07 11:59 42.43566 1.99466 33987 ft 387 kts 176°
2026-05-07 11:59 42.40902 2.00001 33544 ft 384 kts 176°
2026-05-07 12:00 42.38302 2.00523 33127 ft 381 kts 176°
2026-05-07 12:00 42.35686 2.01012 32743 ft 376 kts 178°
2026-05-07 12:00 42.33092 2.01354 32361 ft 372 kts 180°
2026-05-07 12:00 42.30517 2.01638 31982 ft 369 kts 180°
2026-05-07 12:01 42.27957 2.01919 31604 ft 367 kts 180°
2026-05-07 12:01 42.25452 2.02207 31239 ft 364 kts 180°
2026-05-07 12:01 42.22926 2.02509 30874 ft 362 kts 179°
2026-05-07 12:01 42.20425 2.02800 30507 ft 358 kts 182°
2026-05-07 12:02 42.17999 2.02439 30151 ft 347 kts 199°
2026-05-07 12:02 42.15818 2.01223 29731 ft 341 kts 212°
2026-05-07 12:02 42.13939 1.99300 29336 ft 337 kts 222°
2026-05-07 12:02 42.12224 1.97156 28943 ft 334 kts 224°
2026-05-07 12:03 42.10553 1.94984 28584 ft 331 kts 224°
2026-05-07 12:03 42.08897 1.92831 28228 ft 328 kts 224°
2026-05-07 12:03 42.07265 1.90729 27852 ft 327 kts 223°
2026-05-07 12:03 42.05617 1.88624 27505 ft 326 kts 223°
2026-05-07 12:04 42.03957 1.86517 27154 ft 330 kts 223°
2026-05-07 12:04 42.02274 1.84389 26779 ft 331 kts 223°
2026-05-07 12:04 42.00617 1.82299 26419 ft 329 kts 223°
2026-05-07 12:04 41.98947 1.80196 26060 ft 327 kts 223°
2026-05-07 12:05 41.97292 1.78114 25698 ft 325 kts 223°
2026-05-07 12:05 41.95619 1.76072 25351 ft 323 kts 219°
2026-05-07 12:05 41.93826 1.74252 25004 ft 321 kts 216°
2026-05-07 12:05 41.91992 1.72534 24660 ft 320 kts 215°
2026-05-07 12:06 41.90161 1.70840 24315 ft 319 kts 215°
2026-05-07 12:06 41.88355 1.69158 23981 ft 320 kts 216°
2026-05-07 12:06 41.86526 1.67441 23629 ft 322 kts 216°
2026-05-07 12:06 41.84685 1.65700 23219 ft 322 kts 216°
2026-05-07 12:07 41.82853 1.63962 22829 ft 320 kts 216°
2026-05-07 12:07 41.81060 1.62258 22472 ft 318 kts 216°
2026-05-07 12:07 41.79258 1.60545 22137 ft 315 kts 216°
2026-05-07 12:07 41.77473 1.58849 21794 ft 313 kts 216°
2026-05-07 12:08 41.75700 1.57166 21453 ft 311 kts 216°
2026-05-07 12:08 41.73944 1.55538 21119 ft 309 kts 211°
2026-05-07 12:08 41.71942 1.54507 20786 ft 309 kts 194°
2026-05-07 12:08 41.69822 1.53949 20480 ft 310 kts 192°
2026-05-07 12:09 41.67692 1.53442 20153 ft 311 kts 192°
2026-05-07 12:09 41.65584 1.52937 19828 ft 313 kts 192°
2026-05-07 12:09 41.63439 1.52408 19483 ft 312 kts 192°
2026-05-07 12:09 41.61305 1.51870 19154 ft 310 kts 192°
2026-05-07 12:10 41.59180 1.51330 18828 ft 309 kts 192°
2026-05-07 12:10 41.57117 1.50703 18481 ft 307 kts 202°
2026-05-07 12:10 41.55319 1.49200 18162 ft 305 kts 223°
2026-05-07 12:10 41.54024 1.46966 17722 ft 307 kts 243°
2026-05-07 12:11 41.53275 1.44293 17406 ft 305 kts 251°
2026-05-07 12:11 41.52666 1.41613 17061 ft 304 kts 252°
2026-05-07 12:11 41.52076 1.38891 16722 ft 303 kts 252°
2026-05-07 12:11 41.51884 1.38007 16621 ft 303 kts 252°
2026-05-07 12:12 41.51263 1.35150 16285 ft 301 kts 252°
2026-05-07 12:12 41.50682 1.32510 15974 ft 299 kts 252°
2026-05-07 12:12 41.50091 1.29850 15663 ft 297 kts 252°
2026-05-07 12:12 41.49501 1.27215 15362 ft 296 kts 252°
2026-05-07 12:13 41.49107 1.25461 15154 ft 295 kts 252°
2026-05-07 12:13 41.48518 1.22849 14853 ft 294 kts 252°
2026-05-07 12:13 41.47927 1.20238 14550 ft 293 kts 252°
2026-05-07 12:13 41.47146 1.16795 14143 ft 292 kts 252°
2026-05-07 12:14 41.46747 1.15039 13936 ft 291 kts 252°
2026-05-07 12:14 41.46164 1.12477 13603 ft 291 kts 252°
2026-05-07 12:14 41.45576 1.09895 13285 ft 290 kts 252°
2026-05-07 12:14 41.44996 1.07354 12960 ft 289 kts 252°
2026-05-07 12:15 41.44413 1.04799 12656 ft 287 kts 252°
2026-05-07 12:15 41.43832 1.02257 12357 ft 285 kts 252°
2026-05-07 12:15 41.43254 0.99733 12046 ft 284 kts 252°
2026-05-07 12:15 41.42678 0.97220 11751 ft 283 kts 252°
2026-05-07 12:16 41.42104 0.94716 11451 ft 281 kts 252°
2026-05-07 12:16 41.41539 0.92254 11157 ft 280 kts 252°
2026-05-07 12:16 41.40968 0.89773 10863 ft 279 kts 252°
2026-05-07 12:16 41.40399 0.87300 10565 ft 278 kts 252°
2026-05-07 12:17 41.39822 0.84834 10261 ft 278 kts 249°
2026-05-07 12:17 41.38813 0.82731 10090 ft 271 kts 223°
2026-05-07 12:17 41.37246 0.81385 9942 ft 270 kts 201°
2026-05-07 12:17 41.35441 0.80614 9648 ft 274 kts 196°
2026-05-07 12:18 41.33603 0.79924 9329 ft 274 kts 196°
2026-05-07 12:18 41.31772 0.79240 9037 ft 273 kts 196°
2026-05-07 12:18 41.29945 0.78545 8749 ft 272 kts 196°
2026-05-07 12:18 41.28145 0.77850 8597 ft 265 kts 196°
2026-05-07 12:19 41.26423 0.77179 8474 ft 258 kts 196°
2026-05-07 12:19 41.24724 0.76515 8370 ft 250 kts 196°
2026-05-07 12:19 41.23070 0.75877 8212 ft 245 kts 194°
2026-05-07 12:19 41.21403 0.75428 7979 ft 243 kts 189°
2026-05-07 12:20 41.19755 0.75060 7748 ft 242 kts 189°
2026-05-07 12:20 41.18094 0.74688 7504 ft 241 kts 189°
2026-05-07 12:20 41.16434 0.74353 7249 ft 240 kts 182°
2026-05-07 12:20 41.14766 0.74386 7008 ft 239 kts 176°
2026-05-07 12:21 41.13108 0.74516 6764 ft 239 kts 176°
2026-05-07 12:21 41.11448 0.74637 6517 ft 239 kts 176°
2026-05-07 12:21 41.09785 0.74762 6269 ft 239 kts 172°
2026-05-07 12:21 41.08187 0.75334 6006 ft 237 kts 159°
2026-05-07 12:22 41.06673 0.76119 5764 ft 237 kts 157°
2026-05-07 12:22 41.05271 0.77226 5497 ft 235 kts 133°
2026-05-07 12:22 41.04457 0.79071 5272 ft 233 kts 105°
2026-05-07 12:22 41.04379 0.81198 5039 ft 233 kts 79°
2026-05-07 12:23 41.04867 0.83244 4809 ft 233 kts 70°
2026-05-07 12:23 41.05474 0.85247 4560 ft 234 kts 69°
2026-05-07 12:23 41.06071 0.87207 4317 ft 230 kts 70°
2026-05-07 12:23 41.06657 0.89152 4039 ft 222 kts 70°
2026-05-07 12:24 41.07218 0.91021 3772 ft 213 kts 71°
2026-05-07 12:24 41.07749 0.92814 3556 ft 205 kts 71°
2026-05-07 12:24 41.08256 0.94526 3329 ft 193 kts 71°
2026-05-07 12:24 41.08732 0.96144 3102 ft 184 kts 72°
2026-05-07 12:25 41.09184 0.97688 2888 ft 176 kts 71°
2026-05-07 12:25 41.09618 0.99166 2705 ft 170 kts 72°
2026-05-07 12:25 41.10041 1.00612 2531 ft 170 kts 72°
2026-05-07 12:25 41.10469 1.02069 2330 ft 169 kts 72°
2026-05-07 12:26 41.10893 1.03520 2163 ft 167 kts 73°
2026-05-07 12:26 41.11304 1.04938 1928 ft 161 kts 72°
2026-05-07 12:26 41.11694 1.06261 1790 ft 146 kts 72°
2026-05-07 12:26 41.12048 1.07461 1614 ft 136 kts 74°
2026-05-07 12:27 41.12387 1.08628 1398 ft 133 kts 73°
2026-05-07 12:27 41.12715 1.09764 1229 ft 129 kts 75°
2026-05-07 12:27 41.13048 1.10924 1050 ft 137 kts 74°
2026-05-07 12:27 41.13384 1.12106 858 ft 136 kts 73°
2026-05-07 12:28 41.13737 1.13302 664 ft 142 kts 72°
2026-05-07 12:28 41.14090 1.14516 471 ft 139 kts 70°
2026-05-07 12:28 41.14437 1.15669 298 ft 135 kts 74°
2026-05-07 12:28 41.14758 1.16781 242 ft 112 kts 68°
2026-05-07 12:29 41.14961 1.17480 241 ft 54 kts 69°
2026-05-07 12:29 41.15088 1.17915 244 ft 44 kts 69°
2026-05-07 12:29 41.15168 1.18186 243 ft 22 kts 69°
2026-05-07 12:29 41.15232 1.18287 242 ft 13 kts
2026-05-07 12:30 41.15317 1.18245 242 ft 13 kts 334°
2026-05-07 12:30 41.15335 1.18150 242 ft 11 kts 251°
2026-05-07 12:30 41.15306 1.18049 242 ft 12 kts 250°
2026-05-07 12:30 41.15273 1.17933 242 ft 14 kts 248°
2026-05-07 12:31 41.15234 1.17798 242 ft 17 kts 249°
2026-05-07 12:31 41.15187 1.17642 242 ft 20 kts 248°
2026-05-07 12:31 41.15134 1.17459 242 ft 22 kts 249°
2026-05-07 12:31 41.15075 1.17255 241 ft 25 kts 249°
2026-05-07 12:32 41.15010 1.17035 241 ft 27 kts 249°
2026-05-07 12:32 41.14941 1.16803 241 ft 27 kts 248°
2026-05-07 12:32 41.14876 1.16578 242 ft 25 kts 249°
2026-05-07 12:32 41.14815 1.16369 242 ft 23 kts 249°
2026-05-07 12:33 41.14732 1.16049 242 ft 8 kts 299°
2026-05-07 12:33 41.14779 1.16012 242 ft 7 kts 339°
2026-05-07 12:33 41.14794 1.16003 242 ft 0 kts 339°